This is the latest recevied weather packets stored in our database for station/object EA1GEC-10. If no packets are shown the sender has not sent any weather packets the latest 10 day(s).
| Time | Temp. | Humidity | Pressure | Rain* | Wind** | Luminosity | Snow |
|---|---|---|---|---|---|---|---|
| 1777554769 | 20.56° C | 52% | 1023.9 hPa | - | - | - | - |
| 1777553869 | 19.44° C | 53% | 1023.9 hPa | - | - | - | - |
| 1777552969 | 20° C | 52% | 1023.9 hPa | - | - | - | - |
| 1777552069 | 19.44° C | 53% | 1023.9 hPa | - | - | - | - |
| 1777551168 | 20° C | 55% | 1023.9 hPa | - | - | - | - |
| 1777550278 | 19.44° C | 56% | 1023.9 hPa | - | - | - | - |
| 1777549378 | 18.89° C | 56% | 1023.9 hPa | - | - | - | - |
| 1777548468 | 18.89° C | 57% | 1024 hPa | - | - | - | - |
| 1777547568 | 17.78° C | 58% | 1023.9 hPa | - | - | - | - |
| 1777546668 | 19.44° C | 56% | 1023.8 hPa | - | - | - | - |
| 1777545768 | 19.44° C | 57% | 1023.6 hPa | - | - | - | - |
| 1777544868 | 18.33° C | 59% | 1023.7 hPa | - | - | - | - |
| 1777543968 | 17.22° C | 60% | 1023.5 hPa | - | - | - | - |
| 1777543068 | 18.33° C | 60% | 1023.3 hPa | - | - | - | - |
| 1777542168 | 17.78° C | 62% | 1023.2 hPa | - | - | - | - |
| 1777541268 | 15.56° C | 64% | 1023.1 hPa | - | - | - | - |
| 1777540377 | 16.67° C | 62% | 1022.8 hPa | - | - | - | - |
| 1777539467 | 17.22° C | 63% | 1022.7 hPa | - | - | - | - |
| 1777538567 | 16.67° C | 66% | 1022.6 hPa | - | - | - | - |
| 1777537667 | 15.56° C | 67% | 1022.6 hPa | - | - | - | - |
| 1777536767 | 15° C | 68% | 1022.7 hPa | - | - | - | - |
| 1777535867 | 15° C | 69% | 1022.5 hPa | - | - | - | - |
| 1777534967 | 15° C | 69% | 1022.4 hPa | - | - | - | - |
| 1777534067 | 14.44° C | 70% | 1022.2 hPa | - | - | - | - |
| 1777533167 | 14.44° C | 70% | 1022 hPa | - | - | - | - |
* Rain since midnight (hover to see other rain measurements)
** Current wind speed in m/s (hover to see current wind gust speed)